South Beach, OR

6:14 AM PST on February 25, 2017 (GMT -0800)
Newport Municipal

Weather History for KONP - February, 2012

Change the Weather History Date:

Sunday, February 5, 2012

  Actual Average Record
Temperature  
Mean Temperature 50 °F -  
Max Temperature 59 °F 50 °F 60 °F (2007)
Min Temperature 41 °F 38 °F 26 °F (2014)
Degree Days  
Heating Degree Days 15    
Moisture  
Dew Point 34 °F    
Average Humidity 57    
Maximum Humidity 70    
Minimum Humidity 42    
Precipitation  
Precipitation 0.00 in - - ()
Sea Level Pressure  
Sea Level Pressure 30.14 in    
Wind  
Wind Speed 9 mph (East)    
Max Wind Speed 18 mph    
Max Gust Speed 23 mph    
Visibility 10 miles    
Events      
Averages and records for this station are not official NWS values.
T = Trace of Precipitation, MM = Missing Value Source: NWS Daily Summary

Daily Weather History Graph

Daily Weather History Graph

Search for Another Location

Airport or City:

Trip Planner

Search our weather history database for the weather conditions in past years. The results will help you decide how hot, cold, wet, or windy it might be!

Date:

Astronomy

Feb. 05, 2012 Rise Set
Actual Time 7:30 AM PST 5:30 PM PST
Civil Twilight 6:59 AM PST 6:01 PM PST
Nautical Twilight 6:25 AM PST 6:35 PM PST
Astronomical Twilight 5:51 AM PST 7:09 PM PST
Moon 3:32 PM PST (2/5) 5:49 AM PST (2/5)
Length of Visible Light 11h 01m
Length of Day
9h 59m
Waxing Gibbous, 95% of the Moon is Illuminated
Feb 5
Waxing Gibbous
Feb 7
Full
Feb 14
Last Quarter
Feb 21
New
Feb 29
First Quarter

Hourly Weather History & Observations

Time (PST) Temp. Windchill Dew Point Humidity Pressure Visibility Wind Dir Wind Speed Gust Speed Precip Events Conditions
12:15 AM 42.8 °F 38.6 °F 33.8 °F 70% 30.15 in 10.0 mi East 6.9 mph - N/A   Clear
12:35 AM 42.8 °F 38.0 °F 33.8 °F 70% 30.15 in 10.0 mi East 8.1 mph - N/A   Clear
12:55 AM 42.8 °F 38.0 °F 33.8 °F 70% 30.16 in 10.0 mi East 8.1 mph - N/A   Clear
1:15 AM 42.8 °F 37.5 °F 33.8 °F 70% 30.16 in 10.0 mi East 9.2 mph - N/A   Clear
1:35 AM 42.8 °F 37.0 °F 33.8 °F 70% 30.16 in 10.0 mi East 10.4 mph - N/A   Clear
1:55 AM 42.8 °F 38.0 °F 33.8 °F 70% 30.16 in 10.0 mi East 8.1 mph - N/A   Clear
2:15 AM 42.8 °F 37.0 °F 33.8 °F 70% 30.17 in 10.0 mi East 10.4 mph - N/A   Clear
2:35 AM 42.8 °F 37.5 °F 33.8 °F 70% 30.17 in 10.0 mi East 9.2 mph - N/A   Clear
2:55 AM 42.8 °F 37.5 °F 33.8 °F 70% 30.17 in 10.0 mi East 9.2 mph - N/A   Clear
3:15 AM 42.8 °F 37.5 °F 32.0 °F 66% 30.17 in 10.0 mi East 9.2 mph - N/A   Clear
3:35 AM 42.8 °F 37.5 °F 32.0 °F 66% 30.18 in 10.0 mi East 9.2 mph - N/A   Clear
3:55 AM 42.8 °F 37.0 °F 32.0 °F 66% 30.18 in 10.0 mi East 10.4 mph - N/A   Clear
4:15 AM 42.8 °F 38.0 °F 32.0 °F 66% 30.19 in 10.0 mi East 8.1 mph - N/A   Clear
4:35 AM 42.8 °F 37.0 °F 32.0 °F 66% 30.18 in 10.0 mi East 10.4 mph - N/A   Clear
4:55 AM 42.8 °F 37.5 °F 32.0 °F 66% 30.18 in 10.0 mi East 9.2 mph - N/A   Clear
5:15 AM 42.8 °F 37.0 °F 32.0 °F 66% 30.19 in 10.0 mi East 10.4 mph - N/A   Clear
5:35 AM 42.8 °F 37.5 °F 32.0 °F 66% 30.19 in 10.0 mi East 9.2 mph - N/A   Clear
5:55 AM 42.8 °F 37.0 °F 32.0 °F 66% 30.19 in 10.0 mi East 10.4 mph - N/A   Clear
6:15 AM 42.8 °F 38.0 °F 32.0 °F 66% 30.19 in 10.0 mi East 8.1 mph - N/A   Clear
6:35 AM 42.8 °F 38.0 °F 32.0 °F 66% 30.19 in 10.0 mi East 8.1 mph - N/A   Clear
6:55 AM 42.8 °F 38.0 °F 32.0 °F 66% 30.19 in 10.0 mi East 8.1 mph - N/A   Clear
7:15 AM 42.8 °F 37.5 °F 32.0 °F 66% 30.19 in 10.0 mi East 9.2 mph - N/A   Clear
7:35 AM 42.8 °F 37.5 °F 32.0 °F 66% 30.19 in 10.0 mi East 9.2 mph - N/A   Clear
7:55 AM 41.0 °F 35.2 °F 32.0 °F 70% 30.19 in 10.0 mi East 9.2 mph - N/A   Clear
8:15 AM 42.8 °F 36.6 °F 32.0 °F 66% 30.19 in 10.0 mi East 11.5 mph - N/A   Clear
8:35 AM 42.8 °F 36.2 °F 32.0 °F 66% 30.19 in 10.0 mi East 12.7 mph - N/A   Clear
8:55 AM 44.6 °F 38.8 °F 32.0 °F 61% 30.19 in 10.0 mi East 11.5 mph - N/A   Clear
9:15 AM 44.6 °F 38.8 °F 32.0 °F 61% 30.19 in 10.0 mi East 11.5 mph - N/A   Clear
9:35 AM 48.2 °F - 32.0 °F 54% 30.19 in 10.0 mi East 12.7 mph - N/A   Clear
9:55 AM 48.2 °F - 33.8 °F 58% 30.19 in 10.0 mi East 11.5 mph - N/A   Clear
10:15 AM 50.0 °F - 33.8 °F 54% 30.19 in 10.0 mi East 10.4 mph - N/A   Clear
10:35 AM 50.0 °F - 33.8 °F 54% 30.19 in 10.0 mi East 9.2 mph - N/A   Clear
10:55 AM 50.0 °F - 33.8 °F 54% 30.19 in 10.0 mi ENE 9.2 mph - N/A   Clear
11:15 AM 51.8 °F - 33.8 °F 50% 30.19 in 10.0 mi East 8.1 mph - N/A   Clear
11:35 AM 51.8 °F - 33.8 °F 50% 30.19 in 10.0 mi East 8.1 mph - N/A   Clear
11:55 AM 51.8 °F - 33.8 °F 50% 30.18 in 10.0 mi ENE 8.1 mph - N/A   Clear
12:15 PM 51.8 °F - 35.6 °F 54% 30.17 in 10.0 mi ENE 4.6 mph - N/A   Clear
12:35 PM 53.6 °F - 35.6 °F 51% 30.17 in 10.0 mi East 5.8 mph - N/A   Clear
12:55 PM 55.4 °F - 35.6 °F 47% 30.16 in 10.0 mi East 6.9 mph - N/A   Clear
1:15 PM 55.4 °F - 35.6 °F 47% 30.16 in 10.0 mi East 6.9 mph - N/A   Clear
1:35 PM 55.4 °F - 35.6 °F 47% 30.15 in 10.0 mi East 8.1 mph - N/A   Clear
1:55 PM 55.4 °F - 35.6 °F 47% 30.14 in 10.0 mi East 5.8 mph - N/A   Clear
2:15 PM 55.4 °F - 35.6 °F 47% 30.14 in 10.0 mi East 4.6 mph - N/A   Clear
2:35 PM 57.2 °F - 35.6 °F 44% 30.13 in 10.0 mi ENE 4.6 mph - N/A   Clear
2:55 PM 59.0 °F - 35.6 °F 42% 30.12 in 7.0 mi ENE 6.9 mph - N/A   Clear
3:15 PM 59.0 °F - 37.4 °F 45% 30.12 in 10.0 mi East 5.8 mph - N/A   Clear
3:35 PM 59.0 °F - 35.6 °F 42% 30.11 in 10.0 mi ENE 6.9 mph - N/A   Clear
3:55 PM 57.2 °F - 37.4 °F 48% 30.10 in 10.0 mi East 6.9 mph - N/A   Clear
4:15 PM 55.4 °F - 37.4 °F 51% 30.10 in 10.0 mi NNE 4.6 mph - N/A   Clear
4:35 PM 55.4 °F - 37.4 °F 51% 30.09 in 10.0 mi ENE 6.9 mph - N/A   Clear
4:55 PM 53.6 °F - 35.6 °F 51% 30.08 in 10.0 mi ENE 11.5 mph - N/A   Clear
5:15 PM 53.6 °F - 33.8 °F 47% 30.08 in 10.0 mi East 13.8 mph 19.6 mph N/A   Clear
5:35 PM 53.6 °F - 32.0 °F 44% 30.08 in 10.0 mi East 15.0 mph - N/A   Clear
5:55 PM 51.8 °F - 32.0 °F 47% 30.08 in 10.0 mi East 13.8 mph - N/A   Clear
6:15 PM 51.8 °F - 32.0 °F 47% 30.08 in 10.0 mi East 16.1 mph 21.9 mph N/A   Clear
6:35 PM 51.8 °F - 33.8 °F 50% 30.07 in 10.0 mi East 16.1 mph 20.7 mph N/A   Clear
6:55 PM 51.8 °F - 33.8 °F 50% 30.07 in 10.0 mi East 15.0 mph 19.6 mph N/A   Clear
7:15 PM 50.0 °F - 33.8 °F 54% 30.07 in 10.0 mi East 13.8 mph - N/A   Clear
7:35 PM 50.0 °F - 33.8 °F 54% 30.06 in 10.0 mi East 15.0 mph - N/A   Clear
7:55 PM 50.0 °F - 33.8 °F 54% 30.06 in 10.0 mi East 15.0 mph - N/A   Clear
8:15 PM 50.0 °F - 33.8 °F 54% 30.06 in 10.0 mi East 15.0 mph - N/A   Clear
8:35 PM 50.0 °F - 33.8 °F 54% 30.05 in 10.0 mi East 15.0 mph 20.7 mph N/A   Clear
8:55 PM 50.0 °F - 33.8 °F 54% 30.05 in 10.0 mi East 17.3 mph 21.9 mph N/A   Clear
9:15 PM 50.0 °F - 32.0 °F 50% 30.04 in 10.0 mi East 16.1 mph - N/A   Clear
9:35 PM 50.0 °F - 32.0 °F 50% 30.04 in 10.0 mi East 18.4 mph 23.0 mph N/A   Clear
9:55 PM 50.0 °F - 32.0 °F 50% 30.03 in 10.0 mi East 18.4 mph - N/A   Clear
10:15 PM 50.0 °F - 32.0 °F 50% 30.03 in 10.0 mi East 17.3 mph 24.2 mph N/A   Clear
10:35 PM 50.0 °F - 32.0 °F 50% 30.03 in 10.0 mi ENE 18.4 mph 24.2 mph N/A   Clear
10:55 PM 50.0 °F - 32.0 °F 50% 30.02 in 10.0 mi ENE 21.9 mph 27.6 mph N/A   Clear
11:15 PM 50.0 °F - 32.0 °F 50% 30.01 in 10.0 mi East 20.7 mph 26.5 mph N/A   Clear
11:35 PM 48.2 °F - 32.0 °F 54% 30.01 in 10.0 mi East 20.7 mph 27.6 mph N/A   Clear
11:55 PM 48.2 °F - 32.0 °F 54% 30.00 in 10.0 mi East 19.6 mph 27.6 mph N/A   Clear